Location: Bonny Doon Airfield
(37.0704°N, 122.1252°W)
Time: 19:23:11
(UTC-07:00)

Vanguard 2 - Pass Details

Date: 18 December 2017
Orbit: 553 x 2939 km, 32.9° (Epoch: 22 July)

Event Time Altitude Azimuth Distance (km) Brightness Sun altitude
Rises 12:08:56 0° 223° (SW) 6,375 12.9 29.5°
Reaches altitude 10° 12:14:04 10° 216° (SW) 5,058 12.7 29.5°
Maximum altitude 12:25:50 35° 158° (SSE) 2,594 11.7 29.3°
Drops below altitude 10° 12:33:33 10° 96° (E) 3,314 10.8 29.2°
Sets 12:36:09 0° 87° (E) 4,002 11.1 29.1°
